Regional Weather Roundup
Issued by NWS

Home | Current Version | Previous Version | Graphics & Text | Print | Product List | Glossary Off
Versions: 1 2 3 4 5 6 7 8 9 10 11 12 13 14 15 16 17 18 19 20 21 22 23 24 25 26 27 28 29 30 31 32 33 34 35 36 37 38 39 40 41 42 43 44 45 46 47 48 49 50

000
ASUS43 KDMX 231407
RWRIA

WEATHER ROUNDUP FOR IOWA
NATIONAL WEATHER SERVICE DES MOINES IA
900 AM CDT WED JUL 23 2014

NOTE: "FAIR" INDICATES FEW OR NO CLOUDS BELOW 12,000 FEET WITH NO
SIGNIFICANT WEATHER AND/OR OBSTRUCTIONS TO VISIBILITY.

* - THESE STATIONS ARE NOT NWS STATIONS...THUS NOT UNDER NWS
QUALITY CONTROL.  THEY ALSO DO NOT REPORT WEATHER SUCH
AS PRECIPITATION OR FOG.

IAZ001>003-012>014-020>022-031>034-043>046-231500-
   NORTHWEST IOWA

CITY           SKY/WX    TMP DP  RH WIND       PRES   REMARKS
CARROLL *      SUNNY     66  61  82 N10       30.25S
CHEROKEE *     MOSUNNY   66  59  77 N6        30.27S
DENISON *      SUNNY     68  61  77 N7        30.24S
LE MARS *      SUNNY     66  59  77 N6        30.28F
ORANGE CITY *  SUNNY     66  57  72 NE6       30.29S
SHELDON *      SUNNY     68  57  68 NE8       30.27F
SIOUX CITY     SUNNY     72  57  59 NE5       30.26F
SPENCER        MOSUNNY   69  58  67 N10       30.28S
STORM LAKE *   SUNNY     66  61  82 N7        30.27F
$$

IAZ055>058-069>071-079>083-090>094-231500-
   SOUTHWEST IOWA

CITY           SKY/WX    TMP DP  RH WIND       PRES   REMARKS
ATLANTIC *     SUNNY     68  59  73 NE9       30.22S
AUDUBON *      SUNNY     72  64  78 NE7       30.24F
CLARINDA *     SUNNY     70  63  78 N6        30.22S
COUNCIL BLFS * SUNNY     70  63  78 N7        30.23R
CRESTON *      SUNNY     70  61  73 N10G17    30.22R
HARLAN  *      SUNNY     66  61  82 N8        30.28R
LAMONI         SUNNY     72  64  76 N8        30.18R
RED OAK *      SUNNY     70  61  73 NE7G13    30.22S
SHENANDOAH *   SUNNY     70  64  83 N5        30.21F
$$

IAZ047>049-059>061-072>074-084-231500-
   CENTRAL IOWA

CITY           SKY/WX    TMP DP  RH WIND       PRES   REMARKS
AMES           SUNNY     71  63  75 N7        30.22R
ANKENY *       SUNNY     72  64  78 NE6       30.21R
CHARITON *     SUNNY     72  64  78 N7        30.19R
DES MOINES     MOSUNNY   74  62  66 N6        30.20R
GRINNELL*      SUNNY     70  63  78 NE9       30.20S
KNOXVILLE *    SUNNY     72  63  73 NE8       30.18R
MARSHALLTOWN   SUNNY     71  63  75 NE10      30.20R
PELLA *        SUNNY     73  64  73 NE6       30.19R
PERRY *          N/A     70  61  73 N7        30.23R
$$

IAZ004>006-015-016-023>025-035-036-231500-
   NORTH CENTRAL IOWA

CITY           SKY/WX    TMP DP  RH WIND       PRES   REMARKS
ALGONA *       SUNNY     66  59  77 N7        30.27R
CLARION *      MOSUNNY   70  63  78 NE7       30.24R
ESTHERVILLE    SUNNY     66  57  72 N10       30.28R
FORT DODGE *   SUNNY     68  61  77 N6        30.26R
MASON CITY     SUNNY     69  62  78 NE6       30.26R
FOREST CITY *  PTSUNNY   68  61  77 CALM      30.26R
IOWA FALLS *   PTSUNNY   70  61  73 NE5       30.24R
$$

IAZ007>011-017>019-026>030-037>042-050>054-066-231500-
   NORTHEAST IOWA

CITY           SKY/WX    TMP DP  RH WIND       PRES   REMARKS
CEDAR RAPIDS   SUNNY     72  61  68 NE10      30.19R
CHARLES CITY * MOSUNNY   70  61  73 NE6       30.25R
CLINTON *      SUNNY     70  63  78 NE14      30.19
DECORAH *      SUNNY     68  59  73 VRB6      30.24R
DUBUQUE        SUNNY     67  60  78 NE12      30.20R
MONTICELLO *   SUNNY     70  61  73 VRB7G15   30.20R
OELWEIN *      SUNNY     68  61  77 NE10      30.24R
WATERLOO       SUNNY     71  60  68 NE12      30.21R
$$

IAZ064-065-067-068-078-231500-
   EAST CENTRAL IOWA

CITY           SKY/WX    TMP DP  RH WIND       PRES   REMARKS
DAVENPORT      SUNNY     71  63  75 NE14      30.17R
IOWA CITY      SUNNY     72  63  73 NE13      30.19R
MT. PLEASANT * SUNNY     73  64  73 N6        30.15R
MUSCATINE *    SUNNY     73  64  73 NE13      30.17R
QUAD CITIES    SUNNY     72  62  71 NE10      30.15R
$$

IAZ062-063-075>077-085>089-095>099-231500-
   SOUTHEAST IOWA

CITY           SKY/WX    TMP DP  RH WIND       PRES   REMARKS
BURLINGTON     MOSUNNY   74  67  78 NE14      30.14R
FAIRFIELD *    SUNNY     72  64  78 NE9       30.17R
FORT MADISON * SUNNY     75  70  83 NE9       30.15R
KEOKUK *       SUNNY     75  68  78 NE12G17   30.12R
OSKALOOSA *      N/A     72  66  83 NE12      30.18R
CENTERVILLE *  SUNNY     73  66  78 NE6       30.18R
OTTUMWA        SUNNY     72  65  78 NE13      30.15R
WASHINGTON *   SUNNY     72  64  78 NE10      30.17R
$$

ABBREVIATIONS USED IN REMARKS
   TC - TEMPERATURES IN CELSIUS
  WCI - WIND CHILL INDEX
   HX - HEAT INDEX
  VSB - VISIBILITY
$$




USA.gov is the U.S. government's official web portal to all federal, state and local government web resources and services.